Location: Bílinka
(49.3579°N, 14.3767°E)
Time: 04:52:25
(UTC+00:00)

PSLV R/B - Visible Passes

Search period start: 21 April 2024 00:00
Search period end: 01 May 2024 00:00
Orbit: 471 x 524 km, 97.7° (Epoch: 20 April)

Date Brightness Start Highest point End Pass type
(mag) Time Alt. Az. Time Alt. Az. Time Alt. Az.
21 Apr 5.7 19:37:42 10° SSW 19:40:56 27° W 19:44:13 10° NW visible
22 Apr 4.8 19:16:54 10° S 19:20:30 45° W 19:24:11 10° NNW visible
23 Apr 3.8 18:56:21 10° S 19:00:06 78° WSW 19:03:57 10° NNW visible
24 Apr 3.8 18:36:02 10° SSE 18:39:45 61° ENE 18:43:32 10° N visible
24 Apr 6.6 20:12:01 10° WSW 20:13:49 13° W 20:15:38 10° WNW visible
25 Apr 6.1 19:50:18 10° SW 19:53:12 21° W 19:56:08 10° NW visible
26 Apr 5.3 19:29:09 10° SSW 19:32:36 34° W 19:36:07 10° NNW visible
27 Apr 4.3 19:08:19 10° S 19:12:03 58° W 19:15:50 10° NNW visible
28 Apr 3.7 18:47:44 10° SSE 18:51:31 82° ENE 18:55:22 10° NNW visible
29 Apr 6.4 20:02:29 10° SW 20:04:56 16° W 20:07:25 10° NW visible
30 Apr 5.8 19:40:58 10° SSW 19:44:11 26° W 19:47:27 10° NW visible
